Location: Newark
(7.0858°N, 171.3717°E)
Time: 12:54:42
(UTC+00:00)

Vanguard 1 Rocket - Pass Details

Date: 28 November 2020
Orbit: 655 x 4222 km, 34.3° (Epoch: 23 January)

Event Time Altitude Azimuth Distance (km) Brightness Sun altitude
Exits shadow 15:48:11 30° 344° (NNW) 5,099 10.8 -38.4°
Drops below altitude 10° 16:02:25 10° 39° (NE) 5,316 11.4 -35.2°
Sets 16:06:39 0° 51° (NE) 5,834 11.9 -34.2°
